Weather History for Keene, NH

Change the Weather History Date:

Friday, March 15, 2013

  Actual Average Record
Temperature  
Mean Temperature 26 °F -  
Max Temperature 35 °F 43 °F 71 °F (1990)
Min Temperature 17 °F 23 °F -1 °F (1993)
Degree Days  
Heating Degree Days 39    
Moisture  
Dew Point 12 °F    
Average Humidity 56    
Maximum Humidity 86    
Minimum Humidity 26    
Precipitation  
Precipitation 0.00 in - - ()
Sea Level Pressure  
Sea Level Pressure 29.75 in    
Wind  
Wind Speed 10 mph (WNW)    
Max Wind Speed 15 mph    
Max Gust Speed 23 mph    
Visibility 9 miles    
Events      
Averages and records for this station are not official NWS values.
T = Trace of Precipitation, MM = Missing Value Source: NWS Daily Summary

Daily Weather History Graph

Daily Weather History Graph

Search for Another Location

Airport:

Trip Planner

Search our weather history database for the weather conditions in past years. The results will help you decide how hot, cold, wet, or windy it might be!

Date:

Astronomy

Mar. 15, 2013 Rise Set
Actual Time 7:00 AM EDT 6:55 PM EDT
Civil Twilight 6:32 AM EDT 7:23 PM EDT
Nautical Twilight 5:59 AM EDT 7:56 PM EDT
Astronomical Twilight 5:26 AM EDT 8:30 PM EDT
Moon 8:42 AM EDT (3/15) 11:14 PM EDT (3/15)
Length of Visible Light 12h 51m
Length of Day
11h 55m
Waxing Crescent, 15% of the Moon is Illuminated
Mar 15
Waxing Crescent
Mar 19
First Quarter
Mar 27
Full
Apr 3
Last Quarter
Apr 10
New

Hourly Weather History & Observations

Time (EDT) Temp. Windchill Dew Point Humidity Pressure Visibility Wind Dir Wind Speed Gust Speed Precip Events Conditions
12:15 AM 21.2 °F 9.5 °F 8.6 °F 58% 29.85 in 10.0 mi North 11.5 mph - N/A   Overcast
12:35 AM 21.2 °F 8.3 °F 8.6 °F 58% 29.85 in 10.0 mi NNW 13.8 mph 18.4 mph N/A   Overcast
1:35 AM 21.2 °F 8.3 °F 8.6 °F 58% 29.85 in 10.0 mi North 13.8 mph - N/A   Overcast
2:15 AM 19.4 °F 5.5 °F 6.8 °F 58% 29.86 in 10.0 mi North 15.0 mph 23.0 mph N/A   Overcast
2:35 AM 19.4 °F 7.2 °F 8.6 °F 63% 29.87 in 10.0 mi North 11.5 mph - N/A   Overcast
2:55 AM 19.4 °F 6.6 °F 6.8 °F 58% 29.87 in 10.0 mi North 12.7 mph 18.4 mph N/A   Overcast
3:15 AM 19.4 °F 8.6 °F 5.0 °F 54% 29.86 in 10.0 mi NNW 9.2 mph 19.6 mph N/A   Overcast
3:35 AM 19.4 °F 5.5 °F 3.2 °F 49% 29.86 in 10.0 mi NNW 15.0 mph 23.0 mph N/A   Overcast
4:15 AM 19.4 °F 8.6 °F 3.2 °F 49% 29.85 in 10.0 mi North 9.2 mph 18.4 mph N/A   Overcast
4:35 AM 19.4 °F 7.9 °F 3.2 °F 49% 29.85 in 10.0 mi North 10.4 mph - N/A   Overcast
4:55 AM 17.6 °F 4.3 °F 3.2 °F 53% 29.85 in 10.0 mi North 12.7 mph - N/A   Scattered Clouds
5:15 AM 17.6 °F 6.4 °F 3.2 °F 53% 29.85 in 10.0 mi North 9.2 mph - N/A   Clear
5:35 AM 17.6 °F 6.4 °F 3.2 °F 53% 29.85 in 10.0 mi North 9.2 mph - N/A   Clear
5:55 AM 17.6 °F 5.7 °F 3.2 °F 53% 29.85 in 10.0 mi North 10.4 mph - N/A   Clear
6:15 AM 17.6 °F 8.2 °F 3.2 °F 53% 29.85 in 10.0 mi North 6.9 mph - N/A   Clear
6:35 AM 17.6 °F 9.3 °F 3.2 °F 53% 29.86 in 10.0 mi North 5.8 mph - N/A   Clear
7:15 AM 17.6 °F 9.3 °F 3.2 °F 53% 29.86 in 10.0 mi NE 5.8 mph - N/A   Clear
7:35 AM 17.6 °F 10.7 °F 5.0 °F 58% 29.87 in 10.0 mi NNE 4.6 mph - N/A   Clear
7:55 AM 17.6 °F 9.3 °F 5.0 °F 58% 29.86 in 10.0 mi North 5.8 mph - N/A   Clear
8:15 AM 19.4 °F 11.5 °F 5.0 °F 54% 29.86 in 10.0 mi North 5.8 mph - N/A   Clear
8:35 AM 19.4 °F 11.5 °F 5.0 °F 54% 29.86 in 10.0 mi North 5.8 mph - N/A   Clear
9:15 AM 21.2 °F 12.6 °F 5.0 °F 50% 29.86 in 10.0 mi North 6.9 mph - N/A   Clear
9:35 AM 21.2 °F 16.4 °F 5.0 °F 50% 29.85 in 10.0 mi ENE 3.5 mph - N/A   Clear
9:55 AM 21.2 °F - 5.0 °F 50% 29.85 in 10.0 mi Calm Calm - N/A   Clear
10:15 AM 24.8 °F - 6.8 °F 46% 29.84 in 10.0 mi Calm Calm - N/A   Clear
10:35 AM 24.8 °F 20.5 °F 6.8 °F 46% 29.83 in 10.0 mi ESE 3.5 mph - N/A   Clear
10:55 AM 26.6 °F - 5.0 °F 40% 29.82 in 10.0 mi Calm Calm - N/A   Clear
11:15 AM 26.6 °F 19.1 °F 6.8 °F 43% 29.80 in 10.0 mi NNE 6.9 mph - N/A   Clear
11:55 AM 30.2 °F 22.6 °F 3.2 °F 32% 29.78 in 10.0 mi South 8.1 mph - N/A   Clear
12:15 PM 33.8 °F 25.8 °F 5.0 °F 30% 29.77 in 10.0 mi SW 10.4 mph - N/A   Clear
12:55 PM 33.8 °F 25.8 °F 5.0 °F 30% 29.73 in 10.0 mi WSW 10.4 mph - N/A   Partly Cloudy
1:15 PM 35.6 °F 27.5 °F 3.2 °F 26% 29.72 in 10.0 mi SW 11.5 mph 17.3 mph N/A   Clear
1:35 PM 35.6 °F 27.1 °F 3.2 °F 26% 29.70 in 10.0 mi SSW 12.7 mph 17.3 mph N/A   Mostly Cloudy
1:55 PM 35.6 °F 27.5 °F 6.8 °F 30% 29.69 in 10.0 mi SW 11.5 mph - N/A   Overcast
2:15 PM 35.6 °F 28.0 °F 8.6 °F 33% 29.68 in 10.0 mi SW 10.4 mph 17.3 mph N/A   Overcast
2:35 PM 35.6 °F 27.5 °F 10.4 °F 35% 29.68 in 10.0 mi West 11.5 mph 23.0 mph N/A   Overcast
2:55 PM 35.6 °F 29.2 °F 12.2 °F 38% 29.67 in 10.0 mi SW 8.1 mph - N/A   Mostly Cloudy
3:15 PM 35.6 °F 27.5 °F 12.2 °F 38% 29.66 in 10.0 mi SSW 11.5 mph 17.3 mph N/A   Mostly Cloudy
3:35 PM 35.6 °F 26.6 °F 15.8 °F 44% 29.65 in 10.0 mi SSW 13.8 mph 21.9 mph N/A   Mostly Cloudy
3:55 PM 35.6 °F 28.0 °F 17.6 °F 48% 29.64 in 10.0 mi WSW 10.4 mph 17.3 mph N/A   Overcast
4:15 PM 35.6 °F 27.5 °F 17.6 °F 48% 29.63 in 10.0 mi SSW 11.5 mph - N/A   Mostly Cloudy
4:55 PM 35.6 °F 27.1 °F 19.4 °F 52% 29.62 in 10.0 mi SW 12.7 mph 21.9 mph N/A   Overcast
5:15 PM 35.6 °F 28.0 °F 19.4 °F 52% 29.62 in 10.0 mi SW 10.4 mph 17.3 mph N/A   Mostly Cloudy
5:35 PM 35.6 °F 27.1 °F 21.2 °F 56% 29.63 in 10.0 mi SW 12.7 mph 20.7 mph N/A   Overcast
5:55 PM 33.8 °F 25.8 °F 24.8 °F 70% 29.63 in 7.0 mi SW 10.4 mph - N/A   Overcast
6:15 PM 32.0 °F 24.2 °F 26.6 °F 80% 29.63 in 3.0 mi SW 9.2 mph - N/A   Overcast
6:35 PM 33.8 °F 27.0 °F 26.6 °F 75% 29.62 in 5.0 mi SW 8.1 mph - N/A   Overcast
6:55 PM 33.8 °F 27.0 °F 26.6 °F 75% 29.63 in 4.0 mi SW 8.1 mph - N/A   Overcast
7:15 PM 32.0 °F 24.8 °F 26.6 °F 80% 29.63 in 4.0 mi SW 8.1 mph - N/A   Overcast
7:55 PM 32.0 °F 25.6 °F 26.6 °F 80% 29.63 in 10.0 mi SSW 6.9 mph - N/A   Mostly Cloudy
8:15 PM 32.0 °F 24.2 °F 26.6 °F 80% 29.63 in 1.5 mi SW 9.2 mph - N/A   Overcast
8:35 PM 32.0 °F 27.5 °F 26.6 °F 80% 29.64 in 5.0 mi WSW 4.6 mph - N/A   Mostly Cloudy
8:55 PM 32.0 °F 27.5 °F 26.6 °F 80% 29.64 in 10.0 mi SSW 4.6 mph - N/A   Mostly Cloudy
9:15 PM 30.2 °F 26.7 °F 24.8 °F 80% 29.64 in 10.0 mi SSW 3.5 mph - N/A   Partly Cloudy
9:35 PM 30.2 °F - 24.8 °F 80% 29.64 in 10.0 mi Calm Calm - N/A   Scattered Clouds
9:55 PM 28.4 °F - 24.8 °F 86% 29.64 in 10.0 mi Calm Calm - N/A   Partly Cloudy
10:15 PM 32.0 °F 28.7 °F 24.8 °F 75% 29.64 in 10.0 mi SW 3.5 mph - N/A   Mostly Cloudy
10:55 PM 30.2 °F 21.9 °F 24.8 °F 80% 29.67 in 3.0 mi NNW 9.2 mph 17.3 mph N/A   Mostly Cloudy
11:15 PM 30.2 °F 23.4 °F 26.6 °F 86% 29.68 in 5.0 mi NW 6.9 mph - N/A   Mostly Cloudy
11:35 PM 30.2 °F 21.3 °F 24.8 °F 80% 29.69 in 7.0 mi NNW 10.4 mph 17.3 mph N/A   Overcast
11:55 PM 30.2 °F 23.4 °F 23.0 °F 75% 29.70 in 10.0 mi NNW 6.9 mph - N/A   Overcast